Olathe, KS

11:10 PM CDT on March 25, 2017 (GMT -0500)
Johnson County Executive

Weather History for KOJC - April, 2013

Change the Weather History Date:

Sunday, April 21, 2013

  Actual Average Record
Temperature  
Mean Temperature 56 °F 57 °F  
Max Temperature 65 °F 67 °F 88 °F (1980)
Min Temperature 46 °F 47 °F 27 °F (1966)
Degree Days  
Heating Degree Days 9 9  
Month to date heating degree days 344 248  
Since 1 July heating degree days 4822 4765  
Cooling Degree Days 0 1  
Month to date cooling degree days 0 13  
Year to date cooling degree days 1 14  
Growing Degree Days 5 (Base 50)    
Moisture  
Dew Point 38 °F    
Average Humidity 53    
Maximum Humidity 66    
Minimum Humidity 40    
Precipitation  
Precipitation 0.00 in 0.13 in 2.76 in (1972)
Month to date precipitation 2.56 2.46  
Year to date precipitation 7.76 7.78  
Sea Level Pressure  
Sea Level Pressure 30.16 in    
Wind  
Wind Speed 10 mph (SSE)    
Max Wind Speed 21 mph    
Max Gust Speed 28 mph    
Visibility 10 miles    
Events      
T = Trace of Precipitation, MM = Missing Value Source: NWS Daily Summary

Daily Weather History Graph

Daily Weather History Graph

Search for Another Location

Airport or City:

Trip Planner

Search our weather history database for the weather conditions in past years. The results will help you decide how hot, cold, wet, or windy it might be!

Date:

Astronomy

Apr. 21, 2013 Rise Set
Actual Time 6:33 AM CDT 8:02 PM CDT
Civil Twilight 6:05 AM CDT 8:30 PM CDT
Nautical Twilight 5:32 AM CDT 9:03 PM CDT
Astronomical Twilight 4:56 AM CDT 9:39 PM CDT
Moon 3:50 PM CDT (4/21) 3:53 AM CDT (4/21)
Length of Visible Light 14h 24m
Length of Day
13h 28m
Waxing Gibbous, 80% of the Moon is Illuminated
Apr 21
Waxing Gibbous
Apr 25
Full
May 2
Last Quarter
May 9
New
May 17
First Quarter

Hourly Weather History & Observations

Time (CDT) Temp. Windchill Dew Point Humidity Pressure Visibility Wind Dir Wind Speed Gust Speed Precip Events Conditions
12:53 AM 48.9 °F - 32.0 °F 52% 30.17 in 10.0 mi ESE 10.4 mph - N/A   Mostly Cloudy
1:53 AM 48.0 °F - 30.9 °F 52% 30.16 in 10.0 mi ESE 9.2 mph - N/A   Clear
2:53 AM 46.0 °F 42.5 °F 30.9 °F 56% 30.16 in 10.0 mi SE 6.9 mph - N/A   Clear
3:53 AM 46.0 °F 41.4 °F 32.0 °F 58% 30.16 in 10.0 mi SE 9.2 mph - N/A   Clear
4:53 AM 46.9 °F - 33.1 °F 59% 30.17 in 10.0 mi SSE 8.1 mph - N/A   Clear
5:53 AM 46.9 °F - 35.1 °F 63% 30.18 in 10.0 mi SSE 10.4 mph - N/A   Clear
6:53 AM 46.9 °F - 36.0 °F 66% 30.19 in 10.0 mi SSE 10.4 mph - N/A   Scattered Clouds
7:53 AM 48.0 °F - 37.9 °F 68% 30.21 in 10.0 mi SSE 11.5 mph - N/A   Clear
8:53 AM 53.1 °F - 41.0 °F 64% 30.22 in 10.0 mi SSE 12.7 mph - N/A   Clear
9:53 AM 57.0 °F - 42.1 °F 57% 30.22 in 10.0 mi South 13.8 mph 19.6 mph N/A   Scattered Clouds
10:53 AM 59.0 °F - 39.0 °F 48% 30.22 in 10.0 mi South 12.7 mph - N/A   Overcast
11:53 AM 60.1 °F - 39.0 °F 46% 30.22 in 10.0 mi South 16.1 mph 25.3 mph N/A   Overcast
12:53 PM 61.0 °F - 39.9 °F 46% 30.19 in 10.0 mi South 15.0 mph 26.5 mph N/A   Overcast
1:53 PM 62.1 °F - 41.0 °F 46% 30.17 in 10.0 mi South 11.5 mph 21.9 mph N/A   Overcast
2:53 PM 61.0 °F - 42.1 °F 50% 30.15 in 10.0 mi SSW 11.5 mph - N/A   Overcast
3:53 PM 63.0 °F - 42.1 °F 46% 30.12 in 10.0 mi South 15.0 mph 23.0 mph N/A   Overcast
4:53 PM 64.0 °F - 39.0 °F 40% 30.11 in 10.0 mi SSW 12.7 mph 19.6 mph N/A   Overcast
5:53 PM 64.9 °F - 39.0 °F 39% 30.10 in 10.0 mi South 11.5 mph 23.0 mph N/A   Clear
6:53 PM 64.0 °F - 39.9 °F 41% 30.10 in 10.0 mi South 8.1 mph - N/A   Mostly Cloudy
7:53 PM 59.0 °F - 39.0 °F 48% 30.11 in 10.0 mi South 5.8 mph - N/A   Partly Cloudy
8:53 PM 55.9 °F - 39.9 °F 55% 30.13 in 10.0 mi South 3.5 mph - N/A   Clear
9:53 PM 54.0 °F - 39.9 °F 59% 30.14 in 10.0 mi Calm Calm - N/A   Clear
10:53 PM 52.0 °F - 39.0 °F 61% 30.14 in 10.0 mi SSE 4.6 mph - N/A   Clear
11:53 PM 50.0 °F - 39.0 °F 66% 30.14 in 10.0 mi SSE 5.8 mph - N/A   Clear